Find Starlink 30168

NORAD ID: 57513 Int'l Des: 2023-113 Owner: SPXS Country: US Constellation: starlink operational
LEOCIRCULAR

現在のビュー

3D地球を読み込み中...

About Starlink 30168

Starlink 30168 (NORAD 57513) is a starlink constellation satellite (v2 mini) launched Aug 7, 2023 by SPXS of US. It operates in LEO, CIRCULAR orbit with a mass of 730.00 kg.

Starlink 30168について

説明を読み込み中...

次回通過

Passes for default location (London). Set your location on the main map for personalized predictions.

高度履歴

Loading altitude history...

軌道要素

1 57513U 23113U 26175.17330919 .00004372 00000-0 16832-3 0 9994
2 57513 43.0011 134.4077 0001183 279.4207 80.6511 15.27577340159807
Epoch: Jun 24, 2026 • Age: 11 hours

現在のステータス

高度 482.1 km
速度 7.63 km/s
衛星直下点 10.10°N, 1.84°E
打ち上げ日 Aug 7, 2023
運用期間 2.8 years
タイプ internet

技術仕様

分類 Payload
質量 730.00 kg
乾燥質量 700.00 kg
総質量 730.00 kg
長さ 0.30 m
直径 4.10 m
スパン 29.00 m
形状 Box + pan
製造者 SPXS
バスタイプ Starlink V2M
フェーズステータス In Orbit
所有者/国 SPXS/US

Most Searched